Regional Weather Roundup
Issued by NWS

Home | Current Version | Previous Version | Text Only | Print | Product List | Glossary On
Versions: 1 2 3 4 5 6 7 8 9 10 11 12 13 14 15 16 17 18 19 20 21 22 23 24 25 26 27 28 29 30 31 32 33 34 35 36 37 38 39 40 41 42 43 44 45 46 47 48 49 50
000
ASUS43 KMPX 222110
RWRMN
WEATHER ROUNDUP FOR MINNESOTA
NATIONAL WEATHER SERVICE TWIN CITIES/CHANHASSEN MN
400 PM CDT THU JUN 22 2017


NOTE: "FAIR" INDICATES FEW OR NO CLOUDS BELOW 12,000 FEET WITH NO
SIGNIFICANT WEATHER AND/OR OBSTRUCTIONS TO VISIBILITY. N/A MEANS
CURRENT SKY AND/OR WEATHER CONDITIONS ARE NOT AVAILABLE.

MNZ060>063-068>070-222200-
   Twin Cities Metro

CITY           SKY/WX    TMP DP  RH WIND       PRES   REMARKS
TWIN CITIES    CLOUDY    68  64  87 NW9       29.76R
ST PAUL        LGT RAIN  67  66  97 NW8       29.76R
CRYSTAL        LGT RAIN  65  61  87 SW3       29.75R
BLAINE         CLOUDY    66  66 100 SW5       29.75R
LAKEVILLE      CLOUDY    70  70 100 N5        29.74S
EDEN PRAIRIE   LGT RAIN  68  64  87 N8        29.75S
SOUTH ST PAUL  CLOUDY    69  67  93 NW6       29.75R
LAKE ELMO      RAIN      68  64  88 NW6       29.76S
$$
MNZ001>005-007-008-013>017-022>024-027-028-222200-
   Northwest Minnesota

CITY           SKY/WX    TMP DP  RH WIND       PRES   REMARKS
BEMIDJI        PTSUNNY   74  47  39 W20G26    29.68S
HALLOCK        MOSUNNY   75  36  23 W23G29    29.61F
ROSEAU           N/A     73  45  35 W16G28    29.61S
WARROAD        SUNNY     73  48  40 W21G29    29.60F
THIEF RVR FALL SUNNY     74  39  28 W25G32    29.67S
CROOKSTON      MOSUNNY   75  43  31 W25G31    29.68S
FOSSTON        SUNNY     73  43  33 W20G30    29.70S
DETROIT LAKES  SUNNY     72  45  37 W13G20    29.73S
MOORHEAD       SUNNY     77  41  27 W22G30    29.72R
PARK RAPIDS    MOSUNNY   77  45  32 W13G24    29.71S
MAHNOMEN       FAIR      73  48  40 W18G28    29.70S
$$
MNZ006-009>011-018-025>026-222200-
   North Central Minnesota

CITY           SKY/WX    TMP DP  RH WIND       PRES   REMARKS
BAUDETTE       MOSUNNY   72  43  35 SW15G25   29.60F
FLAG ISLAND    MOSUNNY   70  43  37 W17G26    29.56F HAZE
INTL FALLS     PTSUNNY   75  43  31 W17G23    29.60F
WASKISH        CLOUDY    70  52  52 W12G18    29.65S
BIG FORK       MOSUNNY   72  46  40 W8        29.66S
LONGVILLE      MOSUNNY   75  46  35 SW14G20   29.70S
GRAND RAPIDS   PTSUNNY   75  47  36 SW9       29.70F
CRANE LAKE     MOSUNNY   73  43  33 W7        29.64S
ORR            MOSUNNY   75  41  29 SW12G18   29.62S
COOK           MOSUNNY   73  43  33 W15       29.66S
WALKER         FAIR      74  48  40 W15G22    29.69F
$$
MNZ012-019>021-037-222200-
   Northeast Minnesota

CITY           SKY/WX    TMP DP  RH WIND       PRES   REMARKS
DULUTH         CLOUDY    76  48  37 W9        29.68R
ELY            MOSUNNY   73  39  29 SW7G20    29.65F
HIBBING        SUNNY     73  46  38 W12G18    29.68S
EVELETH        SUNNY     74  33  22 W12G21    29.69S
DULUTH HARBOR  PTSUNNY   79  50  36 W13       29.66S
TWO HARBORS    CLOUDY    81  55  41 W7        29.64R
SILVER BAY     MOSUNNY   79  48  34 SW7       29.63S
GRAND MARAIS     N/A     57  47  69 W13       29.62F
G MARAIS ARPRT SUNNY     70  48  46 S8        29.66S
$$
MNZ029>031-032-039>041-046>048-054>057-064-222200-
   West Central Minnesota

CITY           SKY/WX    TMP DP  RH WIND       PRES   REMARKS
FERGUS FALLS   SUNNY     75  48  38 W9        29.71F
WHEATON        SUNNY     77  43  29 SW3       29.77S
MORRIS         MOSUNNY   75  59  57 SW9       29.77R
ALEXANDRIA     PTSUNNY   73  55  53 SW9G23    29.77S
ELBOW LAKE     FAIR      74  53  46 NW8       29.76S
WADENA         MOSUNNY   75  52  43 W8G17     29.73S
GLENWOOD       SUNNY     72  57  60 S12       29.78F
APPLETON       SUNNY     72  52  49 CALM      29.79S
BENSON         SUNNY     72  55  56 W3        29.80F
ORTONVILLE     SUNNY     72  55  56 S5        29.79S
MADISON        SUNNY     72  55  56 NW5       29.80S
WILLMAR        FAIR      66  57  72 W8        29.80F
$$
MNZ033>034-036-042>043-049>051-058-059-222200-
   Central Minnesota

CITY           SKY/WX    TMP DP  RH WIND       PRES   REMARKS
ST CLOUD       PTSUNNY   70  56  61 W9        29.77R
SAUK CENTRE    FAIR      71  58  63 SW10      29.78S
PAYNESVILLE    MOSUNNY   70  56  60 W8        29.80R
AITKIN         SUNNY     75  48  38 W7        29.70S
PINE RIVER     MOSUNNY   75  52  43 W6G18     29.75S
BRAINERD       PTSUNNY   76  47  35 W12       29.73S
STAPLES        SUNNY     75  45  33 W8        29.73F
LONG PRAIRIE   FAIR      72  59  64 S13       29.76F
LITTLE FALLS   SUNNY     72  52  49 S10G17    29.76R
LITCHFIELD     CLOUDY    66  61  82 NW6       29.78S
BUFFALO        CLOUDY    65  61  85 CALM      29.77S
MAPLE LAKE     CLOUDY    66  62  87 W8        29.78R
HUTCHINSON     MOSUNNY   68  64  85 W6        29.78S
$$
MNZ037-044-045-052-053-222200-
   East Central Minnesota

CITY           SKY/WX    TMP DP  RH WIND       PRES   REMARKS
PRINCETON      CLOUDY    72  61  68 W7        29.76R
MORA           CLOUDY    70  54  56 W9        29.76R
CAMBRIDGE      CLOUDY    70  59  68 SW7       29.74R
RUSH CITY      PTSUNNY   70  59  68 W7        29.75R
MOOSE LAKE     PTSUNNY   75  46  35 NW8       29.69S
HINCKLEY       FAIR      72  59  64 SW9       29.73S
CLOQUET        CLOUDY    75  45  33 W10       29.69S
MCGREGOR       MOSUNNY   75  50  41 SW8       29.71F
$$
MNZ071>073-080-081-089-090-097-098-222200-
   Southwest Minnesota

CITY           SKY/WX    TMP DP  RH WIND       PRES   REMARKS
MONTEVIDEO     CLOUDY    70  70 100 N6        29.80S
GRANITE FALLS  CLOUDY    69  57  65 N7        29.81S
CANBY          MOSUNNY   70  51  51 CALM      29.82R
MARSHALL       PTSUNNY   67  58  72 N8        29.79S
REDWOOD FALLS  CLOUDY    69  62  78 NW8       29.77F
OLIVIA         CLOUDY    70  59  68 NW6       29.77S
PIPESTONE      CLOUDY    70  57  64 N10       29.79S
WINDOM         MOSUNNY   68  61  77 N15       29.77S
WORTHINGTON    CLOUDY    68  62  81 N15       29.77S
JACKSON        CLOUDY    72  64  78 N15       29.76S
TRACY          CLOUDY    67  62  83 N12       29.79S
SLAYTON        CLOUDY    64  55  72 N12       29.80R
$$
MNZ065>067-074>077-082>085-091>093-222200-
   South Central Minnesota

CITY           SKY/WX    TMP DP  RH WIND       PRES   REMARKS
MANKATO        CLOUDY    71  65  81 N12       29.76R
NEW ULM        CLOUDY    66  61  82 N6        29.77R
ST JAMES       CLOUDY    70  63  78 NW15      29.76S
FAIRMONT       CLOUDY    77  65  66 NE6       29.73S
GLENCOE        RAIN      65  64  99 NW5       29.76F
FARIBAULT      MOSUNNY   72  63  73 CALM      29.75S
OWATONNA       PTSUNNY   72  64  78 N3        29.74F
WASECA         CLOUDY    70  63  78 N7        29.76R
ALBERT LEA     MOSUNNY   75  66  73 S9        29.71S
$$
MNZ078>079-086>088-094>096-222200-
   Southeast Minnesota

CITY           SKY/WX    TMP DP  RH WIND       PRES   REMARKS
ROCHESTER      CLOUDY    71  67  87 E5        29.73R
RED WING       LGT RAIN  72  66  83 CALM      29.72S
STANTON        CLOUDY    72  66  82 CALM      29.73S THUNDER
DODGE CENTER   CLOUDY    70  66  88 CALM      29.74R
WINONA         CLOUDY    70  68  94 CALM      29.72S
AUSTIN         CLOUDY    73  64  73 S9        29.71S
PRESTON        CLOUDY    70  65  85 CALM      29.74F THUNDER
$$
ABBREVIATIONS USED IN REMARKS
   TC - TEMPERATURES IN CELSIUS
  WCI - WIND CHILL INDEX
   HX - HEAT INDEX
  VSB - VISIBILITY
$$




USA.gov is the U.S. government's official web portal to all federal, state and local government web resources and services.